Starlink 4644

operational
NORAD ID: 53719 Int'l Des: 2022-107 Owner: SPXS Country: US Constellation: starlink
LEOCIRCULAR

About Starlink 4644

Description loading...

Live Position

Loading 3D Globe...

Upcoming Passes

Altitude History

Altitude vs Time

uPlot chart will show altitude changes over time

Two-Line Element Set

1 53719U 22107V 25302.82747920 -.00000059 00000-0 14375-4 0 9997
2 53719 53.2177 91.2060 0001522 92.0562 268.0605 15.08838993175086
Epoch: Oct 29, 2025 • Age: 32 hours

Current Status

Altitude 539.7 km
Velocity 7.60 km/s
Sub-Earth Point 17.11°N, 2.52°E
Launch Date Sep 5, 2022
Age 3.1 years
Type internet

Technical Details

Classification Payload
Mass 305.00 kg
Dry Mass 290.00 kg
Total Mass 305.00 kg
Length 0.20 m
Diameter 2.80 m
Span 9.00 m
Shape Box + pan
Manufacturer SPXS
Bus Type Starlink
Phase Status In Orbit
Owner/State SPXS/US

Large Constellations

Loading constellations...